Soldotna, AK

1:37 AM AKST on December 06, 2019 (GMT -0900)
Soldotna

Weather History for PASX - October, 2019

Change the Weather History Date:

Wednesday, October 2, 2019

  Actual Average Record
Temperature  
Mean Temperature 40 °F -  
Max Temperature 52 °F 47 °F 59 °F (1954)
Min Temperature 30 °F 33 °F 18 °F (1957)
Degree Days  
Heating Degree Days 24    
Moisture  
Dew Point 37 °F    
Average Humidity 85    
Maximum Humidity 97    
Minimum Humidity 61    
Precipitation  
Precipitation 0.00 in - - ()
Sea Level Pressure  
Sea Level Pressure 29.93 in    
Wind  
Wind Speed 1 mph (ENE)    
Max Wind Speed 6 mph    
Max Gust Speed -    
Visibility 10 miles    
Events      
Averages and records for this station are not official NWS values.
T = Trace of Precipitation, MM = Missing Value Source: NWS Daily Summary

Daily Weather History Graph

Daily Weather History Graph

Search for Another Location

Airport or City:

Astronomy

Oct. 02, 2019 Rise Set
Actual Time 8:12 AM AKDT 7:33 PM AKDT
Civil Twilight 7:30 AM AKDT 8:15 PM AKDT
Nautical Twilight 6:40 AM AKDT 9:04 PM AKDT
Astronomical Twilight 5:48 AM AKDT 9:55 PM AKDT
Moon 2:01 PM AKDT (10/2) 9:19 PM AKDT (10/2)
Length of Visible Light 12h 44m
Length of Day
11h 20m
Waxing Crescent, 22% of the Moon is Illuminated
Oct 2
Waxing Crescent
Oct 5
First Quarter
Oct 13
Full
Oct 21
Last Quarter
Oct 27
New

Hourly Weather History & Observations

Time (AKDT) Temp. Windchill Dew Point Humidity Pressure Visibility Wind Dir Wind Speed Gust Speed Precip Events Conditions
12:56 AM 37.0 °F - 35.1 °F 93% 29.75 in 10.0 mi Calm Calm - N/A   Clear
1:56 AM 36.0 °F - 35.1 °F 97% 29.78 in 10.0 mi Calm Calm - N/A   Clear
2:56 AM 33.1 °F - 32.0 °F 96% 29.80 in 10.0 mi Calm Calm - N/A   Clear
3:56 AM 33.1 °F - 32.0 °F 96% 29.82 in 10.0 mi Calm Calm - N/A   Clear
4:56 AM 30.9 °F 27.5 °F 30.0 °F 96% 29.83 in 10.0 mi ENE 3.5 mph - N/A   Clear
5:56 AM 33.1 °F 28.7 °F 32.0 °F 96% 29.84 in 10.0 mi NE 4.6 mph - N/A   Clear
6:56 AM 34.0 °F - 33.1 °F 96% 29.86 in 10.0 mi Calm Calm - N/A   Clear
7:56 AM 36.0 °F - 35.1 °F 97% 29.89 in 10.0 mi Calm Calm - N/A   Mostly Cloudy
8:56 AM 36.0 °F 32.1 °F 35.1 °F 97% 29.90 in 10.0 mi East 4.6 mph - 0.00 in   Overcast
9:56 AM 39.0 °F 34.8 °F 37.9 °F 96% 29.91 in 10.0 mi ENE 5.8 mph - N/A   Overcast
10:56 AM 43.0 °F 40.3 °F 39.9 °F 89% 29.93 in 10.0 mi ENE 4.6 mph - N/A   Clear
11:56 AM 46.0 °F - 41.0 °F 83% 29.95 in 10.0 mi Calm Calm - N/A   Overcast
12:56 PM 46.0 °F - 41.0 °F 83% 29.96 in 10.0 mi Calm Calm - N/A   Overcast
1:56 PM 48.9 °F - 39.9 °F 71% 29.96 in 10.0 mi Calm Calm - N/A   Overcast
2:56 PM 51.1 °F - 39.0 °F 63% 29.97 in 10.0 mi SE 5.8 mph - N/A   Overcast
3:56 PM 50.0 °F - 39.0 °F 66% 29.98 in 10.0 mi Calm Calm - N/A   Overcast
4:56 PM 51.1 °F - 37.9 °F 61% 29.98 in 10.0 mi East 4.6 mph - N/A   Overcast
5:56 PM 51.1 °F - 37.9 °F 61% 29.99 in 10.0 mi Calm Calm - N/A   Mostly Cloudy
6:56 PM 50.0 °F - 39.9 °F 68% 29.99 in 10.0 mi Calm Calm - N/A   Overcast
7:56 PM 45.0 °F - 39.9 °F 82% 30.00 in 10.0 mi Calm Calm - N/A   Mostly Cloudy
8:56 PM 44.1 °F - 39.9 °F 85% 30.01 in 10.0 mi Calm Calm - N/A   Mostly Cloudy
9:56 PM 42.1 °F - 39.0 °F 89% 30.02 in 4.0 mi Calm Calm - N/A   Overcast
10:56 PM 39.9 °F - 37.9 °F 93% 30.04 in 10.0 mi Calm Calm - N/A   Overcast
11:56 PM 37.0 °F - 35.1 °F 93% 30.04 in 9.0 mi Calm Calm - N/A   Partly Cloudy